Weather in Piriatyn

Ukraine / Poltava Region     50°14′39″N   32°30′58″E
temp.,
°C
wind,
m/s
gust,
m/s
humid.,
%
clouds,
%
prec.,
mm/h
press.,
hPa
HPBL,
m
5 december, sun
sun523:00−2sse238665 0.0 101462
02:00−2se228762 0.0 101443
05:00−2sse248749 0.0 101477
08:00−2se23845 0.0 101561
11:00+1se3565100 0.0 1015307
14:00+1se3566100 0.0 1014264
17:00−1se3573100 0.0 101597
20:00−1se3772100 0.0 1015196
6 december, mon
mon623:00−1se4976100 0.0 1016267
02:000se497098 0.0 1015248
05:000se41074100 0.0 1014298
08:000se51097100 1.1 1015307
11:00+1se51295100 1.3 1014401
14:00+1se51195100 2.6 1013341
17:00+2se51198100 1.4 1013336
20:00+2se51298100 2.8 1012364
7 december, tue
tue723:00+3se51298100 0.1 1010324
02:00+4se41099100 0.3 1010227
05:00+6sse41099100 0.1 1009224
08:00+6sse4999100 0.1 1008197
11:00+8sse51297100 0.3 1008432
14:00+10s51293100 0.3 1007504
17:00+9s51197100 0.4 1007371
20:00+8s3699100 1.6 1007233
8 december, wed
wed823:00+6nw2398100 1.3 1008119
02:00+5nnw3594100 1.3 1009184
05:00+4n4693100 0.0 1009213
08:00+4n4792100 0.0 1009231
11:00+5nne5994100 1.0 1008275
14:00+5nne5993100 1.3 1007380
17:00+6nne5995100 0.9 1006338
20:00+5ne3692100 0.9 1006193
9 december, thu
thu923:00+5ne2394100 0.6 100797
02:00+5n2297100 2.6 100780
05:00+4nw3496100 0.1 1008196
08:00+4nw3594100 0.1 1010208
11:00+2wnw5791100 0.1 1012335
14:00+2nw348699 0.1 1013301
17:00+2wnw3585100 0.0 1015299
20:00+2wnw248887 0.0 1017217